| time (UTC) | temp F | wind direction | speed MPH | gust MPH | rain 1hr in | rain 24hr in | rain mn in | humidity % | barometer mb |
| 20260903124526 | 47 | 214 | 0.0 | 0.0 | 0.00 | 0.00 | 0.00 | 38 | 1009.2 |
| 20260903123024 | 48 | 214 | 0.0 | 1.0 | 0.00 | 0.00 | 0.00 | 39 | 1009.2 |
| 20260903121524 | 48 | 206 | 0.0 | 0.0 | 0.00 | 0.00 | 0.00 | 38 | 1009.1 |
| 20260903120019 | 49 | 157 | 0.0 | 1.0 | 0.00 | 0.00 | 0.00 | 36 | 1009.0 |
| 20260903114517 | 49 | 156 | 0.0 | 1.0 | 0.00 | 0.00 | 0.00 | 33 | 1008.9 |
| 20260903113026 | 50 | 160 | 0.0 | 0.0 | 0.00 | 0.00 | 0.00 | 34 | 1008.9 |
| 20260903111513 | 50 | 207 | 0.0 | 2.0 | 0.00 | 0.00 | 0.00 | 35 | 1008.8 |
| 20260903110014 | 52 | 150 | 0.0 | 1.0 | 0.00 | 0.00 | 0.00 | 32 | 1008.9 |
| 20260903104505 | 54 | 117 | 0.0 | 1.0 | 0.00 | 0.00 | 0.00 | 30 | 1008.9 |
| 20260903103003 | 54 | 48 | 1.0 | 4.0 | 0.00 | 0.00 | 0.00 | 29 | 1008.9 |
| 20260903101502 | 55 | 27 | 0.0 | 1.0 | 0.00 | 0.00 | 0.00 | 30 | 1008.8 |
| 20260903100100 | 54 | 140 | 0.0 | 0.0 | 0.00 | 0.00 | 0.00 | 31 | 1008.7 |
| 20260903094600 | 56 | 85 | 0.0 | 0.0 | 0.00 | 0.00 | 0.00 | 30 | 1008.6 |
| 20260903093053 | 58 | 77 | 0.0 | 2.0 | 0.00 | 0.00 | 0.00 | 29 | 1008.6 |
| 20260903091549 | 62 | 248 | 0.0 | 1.0 | 0.00 | 0.00 | 0.00 | 20 | 1008.4 |
| 20260903090045 | 65 | 252 | 0.0 | 7.0 | 0.00 | 0.00 | 0.00 | 19 | 1008.3 |
| 20260903084541 | 66 | 238 | 6.0 | 12.0 | 0.00 | 0.00 | 0.00 | 18 | 1008.3 |
| 20260903083039 | 66 | 221 | 4.0 | 9.0 | 0.00 | 0.00 | 0.00 | 18 | 1008.4 |
| 20260903081542 | 67 | 227 | 8.0 | 15.0 | 0.00 | 0.00 | 0.00 | 17 | 1008.4 |
| 20260903080035 | 67 | 202 | 8.0 | 14.0 | 0.00 | 0.00 | 0.00 | 17 | 1008.4 |
| 20260903074537 | 68 | 211 | 8.0 | 17.0 | 0.00 | 0.00 | 0.00 | 16 | 1008.5 |
| 20260903073031 | 68 | 221 | 7.0 | 18.0 | 0.00 | 0.00 | 0.00 | 15 | 1008.5 |
| 20260903071532 | 69 | 198 | 10.0 | 19.0 | 0.00 | 0.00 | 0.00 | 14 | 1008.3 |
| 20260903070034 | 68 | 205 | 6.0 | 13.0 | 0.00 | 0.00 | 0.00 | 14 | 1008.4 |
| 20260903064522 | 68 | 188 | 6.0 | 13.0 | 0.00 | 0.00 | 0.00 | 14 | 1008.4 |
| 20260903063020 | 69 | 224 | 7.0 | 13.0 | 0.00 | 0.00 | 0.00 | 14 | 1008.3 |
| 20260903061518 | 69 | 226 | 9.0 | 13.0 | 0.00 | 0.00 | 0.00 | 14 | 1008.2 |
| 20260903060015 | 70 | 226 | 7.0 | 17.0 | 0.00 | 0.00 | 0.00 | 14 | 1008.1 |
| 20260903054536 | 70 | 219 | 6.0 | 17.0 | 0.00 | 0.00 | 0.00 | 13 | 1008.1 |
| 20260903053013 | 69 | 245 | 6.0 | 15.0 | 0.00 | 0.00 | 0.00 | 13 | 1008.2 |
| 20260903051512 | 70 | 219 | 6.0 | 15.0 | 0.00 | 0.00 | 0.00 | 13 | 1008.2 |
| 20260903050013 | 70 | 226 | 7.0 | 14.0 | 0.00 | 0.00 | 0.00 | 13 | 1008.1 |
| 20260903044512 | 70 | 198 | 7.0 | 12.0 | 0.00 | 0.00 | 0.00 | 13 | 1008.3 |
| 20260903043011 | 70 | 248 | 5.0 | 11.0 | 0.00 | 0.00 | 0.00 | 13 | 1008.4 |
| 20260903041513 | 69 | 167 | 4.0 | 9.0 | 0.00 | 0.00 | 0.00 | 15 | 1008.2 |
| 20260903040010 | 69 | 233 | 3.0 | 8.0 | 0.00 | 0.00 | 0.00 | 16 | 1008.0 |
| 20260903034509 | 69 | 221 | 2.0 | 6.0 | 0.00 | 0.00 | 0.00 | 15 | 1007.9 |
| 20260903033008 | 71 | 223 | 4.0 | 8.0 | 0.00 | 0.00 | 0.00 | 14 | 1007.7 |
| 20260903031507 | 71 | 161 | 5.0 | 10.0 | 0.00 | 0.00 | 0.00 | 14 | 1007.6 |
| 20260903030018 | 72 | 206 | 8.0 | 16.0 | 0.00 | 0.00 | 0.00 | 14 | 1007.5 |
| 20260903024507 | 73 | 207 | 7.0 | 16.0 | 0.00 | 0.00 | 0.00 | 14 | 1007.2 |
| 20260903023010 | 73 | 219 | 9.0 | 17.0 | 0.00 | 0.00 | 0.00 | 13 | 1007.1 |
| 20260903021509 | 73 | 200 | 8.0 | 16.0 | 0.00 | 0.00 | 0.00 | 13 | 1007.1 |
| 20260903020007 | 74 | 192 | 8.0 | 21.0 | 0.00 | 0.00 | 0.00 | 13 | 1007.0 |
| 20260903014605 | 75 | 219 | 9.0 | 20.0 | 0.00 | 0.00 | 0.00 | 12 | 1007.2 |
| 20260903013004 | 77 | 222 | 12.0 | 24.0 | 0.00 | 0.00 | 0.00 | 12 | 1007.2 |
| 20260903011506 | 77 | 220 | 9.0 | 20.0 | 0.00 | 0.00 | 0.00 | 12 | 1007.3 |
| 20260903010002 | 78 | 220 | 13.0 | 21.0 | 0.00 | 0.00 | 0.00 | 11 | 1007.2 |
| 20260903004501 | 78 | 212 | 9.0 | 25.0 | 0.00 | 0.00 | 0.00 | 11 | 1007.1 |
| 20260903003114 | 78 | 199 | 13.0 | 25.0 | 0.00 | 0.00 | 0.00 | 10 | 1007.3 |
| 20260903001604 | 78 | 219 | 16.0 | 29.0 | 0.00 | 0.00 | 0.00 | 11 | 1007.2 |
| 20260903000107 | 78 | 214 | 14.0 | 29.0 | 0.00 | 0.00 | 0.00 | 10 | 1007.2 |
| 20260902234600 | 78 | 205 | 17.0 | 31.0 | 0.00 | 0.00 | 0.00 | 10 | 1007.3 |
| 20260902233058 | 78 | 228 | 16.0 | 32.0 | 0.00 | 0.00 | 0.00 | 10 | 1007.4 |
| 20260902231557 | 78 | 211 | 16.0 | 32.0 | 0.00 | 0.00 | 0.00 | 10 | 1007.3 |
| 20260902230056 | 78 | 192 | 17.0 | 29.0 | 0.00 | 0.00 | 0.00 | 10 | 1007.3 |
| 20260902224557 | 79 | 205 | 19.0 | 28.0 | 0.00 | 0.00 | 0.00 | 10 | 1007.5 |
| 20260902223057 | 79 | 203 | 15.0 | 27.0 | 0.00 | 0.00 | 0.00 | 10 | 1007.4 |
| 20260902221610 | 79 | 240 | 15.0 | 30.0 | 0.00 | 0.00 | 0.00 | 10 | 1007.5 |
| 20260902220055 | 80 | 200 | 11.0 | 22.0 | 0.00 | 0.00 | 0.00 | 11 | 1007.8 |
| 20260902214548 | 79 | 188 | 15.0 | 34.0 | 0.00 | 0.00 | 0.00 | 11 | 1007.8 |
| 20260902213045 | 79 | 230 | 16.0 | 30.0 | 0.00 | 0.00 | 0.00 | 10 | 1008.2 |
| 20260902211547 | 78 | 203 | 16.0 | 31.0 | 0.00 | 0.00 | 0.00 | 12 | 1008.0 |
| 20260902210052 | 78 | 204 | 16.0 | 34.0 | 0.00 | 0.00 | 0.00 | 12 | 1008.3 |
| 20260902204545 | 78 | 188 | 19.0 | 30.0 | 0.00 | 0.00 | 0.00 | 12 | 1008.3 |
| 20260902203043 | 77 | 228 | 21.0 | 37.0 | 0.00 | 0.00 | 0.00 | 12 | 1008.3 |
| 20260902201543 | 77 | 226 | 20.0 | 35.0 | 0.00 | 0.00 | 0.00 | 12 | 1008.4 |
| 20260902200038 | 77 | 205 | 21.0 | 33.0 | 0.00 | 0.00 | 0.00 | 13 | 1008.5 |
| 20260902194539 | 77 | 169 | 20.0 | 31.0 | 0.00 | 0.00 | 0.00 | 14 | 1008.7 |
| 20260902193034 | 77 | 200 | 16.0 | 36.0 | 0.00 | 0.00 | 0.00 | 15 | 1008.8 |
| 20260902191532 | 77 | 213 | 13.0 | 29.0 | 0.00 | 0.00 | 0.00 | 14 | 1009.1 |
| 20260902190032 | 77 | 190 | 15.0 | 30.0 | 0.00 | 0.00 | 0.00 | 19 | 1009.1 |
| 20260902184529 | 76 | 167 | 19.0 | 33.0 | 0.00 | 0.00 | 0.00 | 17 | 1009.2 |
| 20260902183036 | 76 | 157 | 15.0 | 31.0 | 0.00 | 0.00 | 0.00 | 20 | 1009.3 |
| 20260902181524 | 75 | 176 | 12.0 | 31.0 | 0.00 | 0.00 | 0.00 | 22 | 1009.5 |
| 20260902180021 | 74 | 174 | 14.0 | 24.0 | 0.00 | 0.00 | 0.00 | 22 | 1009.8 |
| 20260902174519 | 74 | 212 | 13.0 | 26.0 | 0.00 | 0.00 | 0.00 | 26 | 1010.1 |
| 20260902173017 | 73 | 172 | 14.0 | 27.0 | 0.00 | 0.00 | 0.00 | 25 | 1010.2 |
| 20260902171616 | 73 | 198 | 14.0 | 26.0 | 0.00 | 0.00 | 0.00 | 28 | 1010.3 |
| 20260902170014 | 72 | 182 | 12.0 | 26.0 | 0.00 | 0.00 | 0.00 | 28 | 1010.1 |
| 20260902164517 | 72 | 224 | 17.0 | 28.0 | 0.00 | 0.00 | 0.00 | 28 | 1010.0 |
| 20260902163011 | 71 | 217 | 18.0 | 27.0 | 0.00 | 0.00 | 0.00 | 30 | 1010.0 |
| 20260902161511 | 71 | 212 | 16.0 | 27.0 | 0.00 | 0.00 | 0.00 | 30 | 1010.1 |
| 20260902160010 | 71 | 208 | 12.0 | 30.0 | 0.00 | 0.00 | 0.00 | 33 | 1010.0 |
| 20260902154507 | 71 | 173 | 13.0 | 24.0 | 0.00 | 0.00 | 0.00 | 33 | 1009.9 |
| 20260902153005 | 70 | 172 | 13.0 | 28.0 | 0.00 | 0.00 | 0.00 | 34 | 1009.9 |
| 20260902151504 | 70 | 216 | 10.0 | 26.0 | 0.00 | 0.00 | 0.00 | 34 | 1010.1 |
| 20260902150004 | 70 | 217 | 10.0 | 19.0 | 0.00 | 0.00 | 0.00 | 31 | 1010.1 |
| 20260902144502 | 69 | 196 | 10.0 | 20.0 | 0.00 | 0.00 | 0.00 | 29 | 1010.1 |
| 20260902143002 | 69 | 199 | 6.0 | 12.0 | 0.00 | 0.00 | 0.00 | 28 | 1010.1 |
| 20260902141505 | 68 | 162 | 5.0 | 16.0 | 0.00 | 0.00 | 0.00 | 29 | 1010.1 |
| 20260902140002 | 67 | 231 | 8.0 | 17.0 | 0.00 | 0.00 | 0.00 | 28 | 1010.0 |
| 20260902134620 | 67 | 203 | 6.0 | 14.0 | 0.00 | 0.00 | 0.00 | 28 | 1009.7 |
| 20260902133104 | 65 | 226 | 10.0 | 18.0 | 0.00 | 0.00 | 0.00 | 28 | 1009.5 |
| 20260902131558 | 62 | 224 | 2.0 | 6.0 | 0.00 | 0.00 | 0.00 | 29 | 1009.9 |
| 20260902130057 | 58 | 55 | 0.0 | 3.0 | 0.00 | 0.00 | 0.00 | 39 | 1009.8 |